Location: 22
(39.7117°N, 89.5929°W)
Time: 19:15:58
(UTC-05:00)

Vanguard 3 - Pass Details

Date: 01 February 2023
Orbit: 508 x 3249 km, 33.4° (Epoch: 30 March)

Event Time Altitude Azimuth Distance (km) Brightness Sun altitude
Rises 21:55:00 0° 267° (W) 5,213 11.8 -52.6°
Reaches altitude 10° 21:57:54 10° 265° (W) 4,520 11.3 -53.1°
Enters shadow 22:05:41 46° 249° (WSW) 3,162 10.0 -54.4°
Maximum altitude 22:11:34 68° 186° (S) 2,988 - -55.3°
Drops below altitude 10° 22:31:09 10° 110° (ESE) 6,185 - -58.4°
Sets 22:35:56 0° 108° (ESE) 7,150 - -59.1°
